Other Public Products
Issued by NWS Grand Forks, ND

Home | Current Version | Previous Version | Graphics & Text | Print | Product List | Glossary On
Versions: 1 2 3 4 5 6 7 8 9 10 11 12 13 14 15 16 17 18 19 20 21 22 23 24 25 26 27 28 29 30 31 32 33 34 35 36 37 38 39 40 41 42 43 44 45 46 47 48 49 50
000
FPUS83 KFGF 030110
OPUFGF
PRAIRIE TO PINES WEATHER ROUNDUP
NATIONAL WEATHER SERVICE EASTERN NORTH DAKOTA/GRAND FORKS ND
800 PM CDT THU JUL 02 2015

 **SATELLITE DATA USED TO AUGMENT SKY COVER AT AUTOMATED STATIONS**
 *****  WEATHER ACROSS EASTERN NORTH DAKOTA  *****

CITY           SKY/WX    TMP DP  RH WIND       PRES   REMARKS
GRAND FORKS    PTSUNNY   75  67  76 S3        29.87S
GRAND FORKS AF PTSUNNY   76  67  74 W6        29.89S
GRAND CITY NWS   N/A     75 N/A N/A SW5         N/A
BUXTON         NOT AVBL
DEVILS LAKE    SUNNY     73  61  64 W6        29.92S
FARGO          PTSUNNY   73  54  51 S10       29.92F
WAHPETON ARPT  PTCLDY    70  54  56 S5        29.95S
$$

 *****  WEATHER ACROSS CENTRAL AND WESTERN NORTH DAKOTA  *****

CITY           SKY/WX    TMP DP  RH WIND       PRES   REMARKS
JAMESTOWN      MOSUNNY   75  64  68 S5        29.93S
BISMARCK       CLOUDY    76  62  62 N5        29.97S HAZE
MINOT          CLOUDY    75  64  68 NW8       29.95S HAZE
MINOT AFB      PTSUNNY   78  71  77 NW7       29.94S HAZE
GARRISON         N/A     75  65  70 N7        29.97R
WILLISTON      SUNNY     83  57  41 NW8       29.99S
DICKINSON      SUNNY     77  59  53 N9        30.00S
HETTINGER      SUNNY     75  59  57 N6        30.04S HAZE
$$

 *****  OTHER OBSERVATIONS NORTHEAST NORTH DAKOTA  *****

CITY           SKY/WX    TMP DP  RH WIND       PRES   REMARKS
WALHALLA       FAIR      77  68  73 MISG      29.87F HAZE
LANGDON        FAIR      73  68  83 W6        29.92F HAZE
CAVALIER       FAIR      75  64  69 W6        29.87S HAZE
GRAFTON        FAIR      75  66  73 NW6       29.88S HAZE
CANDO          FAIR      75  66  73 CALM      29.93S HAZE
FORT TOTTEN      N/A     74  62  66 NW2       29.95S
ROLLA          FAIR      73  66  78 NW6       29.94F
RUGBY          NOT AVBL
 ***** THE ABOVE OBSERVATIONS ARE NON NWS ARE NOT QUALITY
        CONTROLLED AND MAY MIS-REPORT RAIN FOR SNOW...
$$

 *****  OTHER OBSERVATIONS SOUTHEAST NORTH DAKOTA *****

CITY           SKY/WX    TMP DP  RH WIND       PRES   REMARKS
COOPERSTOWN    NOT AVBL
VALLEY CITY    FAIR      75  68  78 SW8       29.94S
OAKES            N/A     72  68  88 S9        29.95S
GWINNER          N/A    N/A N/A N/A SW6       29.95S
BUFFALO        NOT AVBL
WYNDMERE       NOT AVBL
 ***** THE ABOVE OBSERVATIONS ARE NON NWS ARE NOT QUALITY
       CONTROLLED AND MAY MIS-REPORT RAIN FOR SNOW...
$$

  *****  WEATHER ACROSS NORTHERN MINNESOTA  *****

CITY           SKY/WX    TMP DP  RH WIND       PRES   REMARKS
FLAG ISLAND    PTSUNNY   72  63  73 S3        29.85S
WARROAD        MOSUNNY   72  63  73 SW7       29.88S
ROSEAU         MOSUNNY   72  64  78 SW8       29.88S
HALLOCK        MOSUNNY   73  66  78 SW5       29.86S
THF RVR FALLS  PTSUNNY   73  57  56 S10       29.90F
HALSTAD        NOT AVBL
FOSSTON        MOSUNNY   72  55  56 SW7       29.94S
BAUDETTE       PTSUNNY   71  56  58 SW5       29.88F
WASKISH        PTSUNNY   72  59  64 S3        29.91F
CROOKSTON      PTSUNNY   73  61  64 S9        29.90F
$$
  *****  WEATHER ACROSS CENTRAL AND WEST MINNESOTA  *****

CITY           SKY/WX    TMP DP  RH WIND       PRES   REMARKS
BEMIDJI        MOSUNNY   70  56  62 SW7       29.93F
PARK RAPIDS    SUNNY     70  56  61 SW7       29.96S
WADENA         SUNNY     70  54  56 SW3       29.97S
DETROIT LAKES  MOSUNNY   70  52  52 S6        29.97R
MOORHEAD       PTSUNNY   73  55  53 S7        29.94S
FERGUS FALLS   MOSUNNY   72  54  53 S7        29.95S
ELBOW LAKE     FAIR      69  55  61 S6        29.96F
MORRIS MN      SUNNY     72  54  53 S5        29.96S
STAPLES        SUNNY     70  54  56 SW3       29.97S
WHEATON        MOSUNNY   68  52  56 S6        29.97F
$$
  *****  WEATHER ELSEWHERE ACROSS MINNESOTA  *****

CITY           SKY/WX    TMP DP  RH WIND       PRES   REMARKS
DULUTH         MOCLDY    72  57  59 SW8       29.95S
INTRNTL FALLS  PTSUNNY   71  57  61 SW8       29.89F
ELY            PTCLDY    72  57  60 W7        29.93S
CLOQUET        CLEAR     72  55  56 SW5       29.96S
BRAINERD       SUNNY     73  53  49 SW8       29.97R
HIBBING        PTCLDY    71  58  63 SW3       29.94S
ALEXANDRIA     SUNNY     70  50  49 S6        29.99S
SAINT CLOUD    CLEAR     71  56  58 S5        29.97S
MINNEAPOLIS    MOCLDY    74  52  46 SW6       29.97F
$$

  *****  WEATHER ACROSS SOUTH DAKOTA  *****

CITY           SKY/WX    TMP DP  RH WIND       PRES   REMARKS
SIOUX FALLS    PTSUNNY   68  59  73 S6        29.98S
BROOKINGS      MOSUNNY   70  54  56 S6        30.00S
WATERTOWN      SUNNY     70  52  52 SW6       29.98S
HURON          MOSUNNY   68  60  75 S6        29.97R
SISSETON         N/A     70  57  63 S6        29.94F
ABERDEEN       SUNNY     71  62  73 S7        29.95F
MITCHELL       PTSUNNY   68  60  75 SE6       29.98S
PIERRE         MOSUNNY   74  65  73 SE3       29.95S
MOBRIDGE       SUNNY     77  68  73 N5        29.94S HAZE
RAPID CITY     SUNNY     76  58  53 N10       30.06S
$$

  *****  SOME WEATHER IN NEARBY STATES *****

CITY           SKY/WX    TMP DP  RH WIND       PRES   REMARKS
GLASGOW MT     MOSUNNY   81  53  37 N9        30.01F
GREAT FALLS MT SUNNY     83  46  27 E9        30.06F
CHEYENNE WY    CLOUDY    73  52  47 SE6       30.20F
SCOTTSBLUFF NE SUNNY     81  54  39 N13       30.08S
OMAHA NE       CLOUDY    70  62  76 E5        29.94S
DES MOINES IA  CLOUDY    68  53  58 E5        29.95F
DAVENPORT IA   CLOUDY    67  57  70 NE5       29.97R
CHICAGO IL     MOCLDY    61  49  64 NE10      29.98R
EAU CLAIRE WI  PTCLDY    72  56  57 SW3       29.97F
LA CROSSE WI   PTCLDY    72  54  53 SE5       29.97S
$$

  *****  SOME NATIONAL WEATHER *****

CITY           SKY/WX    TMP DP  RH WIND       PRES   REMARKS
LA GUARDIA NY  CLOUDY    74  59  59 S5        29.85F
RALEIGH NC     CLOUDY    73  70  90 CALM      29.89R
ATLANTA GA     MOCLDY    80  68  66 SW7       29.97F
NEW ORLEANS LA MOCLDY    83  71  67 S7        30.02S
OKLAHOMA CITY  CLOUDY    83  70  64 S9        29.89R
ALBUQUERQUE NM CLOUDY    76  57  51 E35G43    30.05S
SALT LAKE CITY PTSUNNY   96  43  16 N6        29.96F HX  92
LOS ANGELES CA MOSUNNY   70  63  78 W16       29.93F
BOISE ID       SUNNY    102  38  11 NW10      29.87F HX  96
SEATTLE WA     MOSUNNY   93  53  25 NW9       29.95F HX  90
$$

*** WEATHER ACROSS MANITOBA...SASKATCHEWAN AND ONTARIO ***
                ***ONTARIO***

CITY           SKY/WX    TMP DP  RH WIND       PRES   REMARKS
GERALDTON      LGT RAIN  59  59 100 S6        29.88F VSB 1
THUNDER BAY    CLOUDY    59  55  88 E6        29.89F
SIOUX LOOKOUT  TSTM      61  59  94 SW8       29.85R FOG
TORONTO        PTCLDY    64  39  39 N12       29.97S
BIG TROUT LK   LGT RAIN  63  61  94 S9        29.69F
PICKLE LAKE    MOCLDY    63  59  88 SW5       29.78F
DRYDEN         PTSUNNY   70  55  60 SW12G20   29.84S
KENORA         CLOUDY    72  63  73 SW15      29.86S
$$
                *** MANITOBA***

CITY           SKY/WX    TMP DP  RH WIND       PRES   REMARKS
BRANDON        SMOKE     70  64  83 NW7       29.91F VSB 3/4
DAUPHIN        SUNNY     77  64  65 SW6       29.87F HAZE
ISLAND LAKE    MOSUNNY   64  61  88 NW3       29.74R
PILOT MOUND      N/A     72  64  78 NW8         N/A
THE PAS        CLOUDY    73  55  53 N8        29.86F SMOKE
THOMPSON       MOSUNNY   73  48  40 NW7       29.79R
WINNIPEG         N/A     72  66  83 W6        29.85F SMOKE
LYNN LAKE      SUNNY     73  45  35 NW8       29.85S
CHURCHILL      MOSUNNY   57  46  67 NE6       29.77S
$$
                ***SASKATCHEWAN***

CITY           SKY/WX    TMP DP  RH WIND       PRES   REMARKS
ESTEVAN        CLOUDY    75  64  69 NW8       29.98S SMOKE
KINDERSLEY     PTSUNNY   79  57  47 NE3       30.01F
LLOYDMINSTER   PTSUNNY   79  52  38 W8        29.98F
PRINCE ALBERT  MOSUNNY   79  57  47 W9        29.93F SMOKE
REGINA         PTSUNNY   77  61  57 NW10      29.99S SMOKE
YORKTON        CLOUDY    73  64  73 W9        29.95S HAZE
N. BATTLEFORD  MOSUNNY   81  54  39 W6        29.99F



USA.gov is the U.S. government's official web portal to all federal, state and local government web resources and services.